CEB961 RPLL-RPMD

Flight info

Callsign CEB961
Flight time N/A
Altitude 39000
Route IPATA2R IPATA B462 MASBA W9A BN W9 RIMAR RIMAR2R
Aircraft A339/H-SADE1E2E3GHIJ1J3J5M1P2RWXY/LB2D1

Departure

Time N/A
Airport Ninoy Aquino International Airport (RPLL)

Arrival

Time 2026-05-07 05:34
Airport Francisco Bangoy International Airport (RPMD)
Time Latitude Longitude Altitude Speed Heading
2026-05-07 05:19 7.82699 125.53547 13195 ft 350 kts 194°
2026-05-07 05:20 7.80346 125.52851 12852 ft 349 kts 194°
2026-05-07 05:20 7.78006 125.52162 12512 ft 347 kts 194°
2026-05-07 05:20 7.75684 125.51480 12179 ft 345 kts 194°
2026-05-07 05:20 7.73391 125.50808 11846 ft 344 kts 194°
2026-05-07 05:21 7.71081 125.50131 11491 ft 343 kts 194°
2026-05-07 05:21 7.66517 125.48792 10816 ft 340 kts 194°
2026-05-07 05:21 7.64224 125.48119 10457 ft 340 kts 194°
2026-05-07 05:22 7.61960 125.47455 10194 ft 335 kts 194°
2026-05-07 05:22 7.59738 125.46802 10135 ft 324 kts 194°
2026-05-07 05:22 7.57621 125.46181 10105 ft 312 kts 194°
2026-05-07 05:22 7.55554 125.45574 10057 ft 302 kts 194°
2026-05-07 05:23 7.53548 125.44988 9770 ft 301 kts 194°
2026-05-07 05:23 7.51503 125.44389 9467 ft 301 kts 194°
2026-05-07 05:23 7.49495 125.43803 9177 ft 301 kts 194°
2026-05-07 05:23 7.47485 125.43216 8892 ft 300 kts 194°
2026-05-07 05:24 7.45483 125.42631 8609 ft 299 kts 194°
2026-05-07 05:24 7.43462 125.42039 8334 ft 298 kts 194°
2026-05-07 05:24 7.41470 125.41455 8064 ft 297 kts 194°
2026-05-07 05:24 7.39470 125.40871 7785 ft 296 kts 195°
2026-05-07 05:25 7.37490 125.40292 7506 ft 296 kts 195°
2026-05-07 05:25 7.35505 125.39721 7214 ft 295 kts 192°
2026-05-07 05:25 7.33471 125.39517 6923 ft 292 kts 175°
2026-05-07 05:25 7.31448 125.39825 6641 ft 289 kts 167°
2026-05-07 05:26 7.29473 125.40260 6358 ft 288 kts 166°
2026-05-07 05:26 7.27522 125.40701 6079 ft 287 kts 166°
2026-05-07 05:26 7.25576 125.41132 5811 ft 286 kts 166°
2026-05-07 05:26 7.23615 125.41557 5546 ft 286 kts 167°
2026-05-07 05:27 7.21681 125.41971 5437 ft 278 kts 167°
2026-05-07 05:27 7.19815 125.42364 5344 ft 271 kts 167°
2026-05-07 05:27 7.17967 125.42754 5106 ft 267 kts 167°
2026-05-07 05:27 7.16171 125.43133 4865 ft 261 kts 167°
2026-05-07 05:28 7.14422 125.43503 4704 ft 252 kts 167°
2026-05-07 05:28 7.12725 125.43860 4551 ft 243 kts 167°
2026-05-07 05:28 7.11062 125.44209 4394 ft 235 kts 166°
2026-05-07 05:28 7.09490 125.44541 4251 ft 226 kts 167°
2026-05-07 05:29 7.07974 125.44862 4102 ft 218 kts 166°
2026-05-07 05:29 7.06577 125.45381 3909 ft 213 kts 147°
2026-05-07 05:29 7.05376 125.46292 3693 ft 213 kts 138°
2026-05-07 05:29 7.04254 125.47276 3489 ft 212 kts 137°
2026-05-07 05:30 7.03130 125.48270 3202 ft 214 kts 137°
2026-05-07 05:30 7.02004 125.49260 2913 ft 217 kts 135°
2026-05-07 05:30 7.01208 125.50519 2669 ft 213 kts 97°
2026-05-07 05:30 7.01481 125.51904 2650 ft 202 kts 56°
2026-05-07 05:31 7.02369 125.52938 2648 ft 189 kts 48°
2026-05-07 05:31 7.03279 125.53915 2597 ft 189 kts 48°
2026-05-07 05:31 7.04158 125.54882 2402 ft 188 kts 49°
2026-05-07 05:31 7.05031 125.55870 2150 ft 187 kts 50°
2026-05-07 05:32 7.05886 125.56851 1829 ft 184 kts 50°
2026-05-07 05:32 7.06714 125.57806 1572 ft 176 kts 50°
2026-05-07 05:32 7.07484 125.58697 1343 ft 170 kts 50°
2026-05-07 05:32 7.08249 125.59583 1115 ft 165 kts 50°
2026-05-07 05:33 7.08984 125.60435 890 ft 159 kts 50°
2026-05-07 05:33 7.09704 125.61272 679 ft 153 kts 50°
2026-05-07 05:33 7.10387 125.62058 476 ft 146 kts 49°
2026-05-07 05:33 7.11046 125.62814 301 ft 140 kts 50°
2026-05-07 05:34 7.11681 125.63563 170 ft 141 kts 50°
2026-05-07 05:34 7.12286 125.64268 126 ft 109 kts 50°
2026-05-07 05:34 7.12665 125.64710 126 ft 57 kts 49°
2026-05-07 05:34 7.12870 125.64951 126 ft 40 kts 50°
2026-05-07 05:35 7.12997 125.65097 126 ft 16 kts 48°
2026-05-07 05:35 7.13074 125.65179 126 ft 15 kts 46°
2026-05-07 05:35 7.13151 125.65271 126 ft 19 kts 51°
2026-05-07 05:35 7.13244 125.65389 126 ft 23 kts 50°
2026-05-07 05:36 7.13364 125.65506 126 ft 15 kts 22°
2026-05-07 05:36 7.13432 125.65507 125 ft 6 kts 12°
2026-05-07 05:36 7.13453 125.65562 125 ft 10 kts 117°
2026-05-07 05:36 7.13378 125.65539 126 ft 16 kts 229°
2026-05-07 05:37 7.13293 125.65440 125 ft 21 kts 230°
2026-05-07 05:37 7.13185 125.65310 126 ft 27 kts 230°
2026-05-07 05:37 7.13048 125.65153 126 ft 31 kts 229°
2026-05-07 05:37 7.12906 125.64992 125 ft 25 kts 229°
2026-05-07 05:38 7.12887 125.64912 126 ft 10 kts 304°
2026-05-07 05:38 7.12938 125.64877 125 ft 8 kts 320°
2026-05-07 05:38 7.12982 125.64834 125 ft 9 kts 314°
2026-05-07 05:38 7.13016 125.64786 125 ft 6 kts 273°
2026-05-07 05:39 7.12994 125.64748 125 ft 7 kts 230°
2026-05-07 05:39 7.12957 125.64705 125 ft 9 kts 230°
2026-05-07 05:39 7.12947 125.64646 125 ft 9 kts 294°
2026-05-07 05:39 7.12987 125.64604 125 ft 7 kts 317°
2026-05-07 05:40 7.12990 125.64601 125 ft 0 kts 318°